Regional Weather Roundup
Issued by NWS Upton, NY

Current Version | Previous Version | Text Only | Print | Product List | Glossary On
Versions: 1 2 3 4 5 6 7 8 9 10 11 12 13 14 15 16 17 18 19 20 21 22 23 24 25 26 27
000
ASUS41 KOKX 031404
RWROKX

REGIONAL WEATHER ROUNDUP
NATIONAL WEATHER SERVICE NEW YORK NY
1000 AM EDT TUE MAY 03 2016

NOTE: "FAIR" INDICATES FEW OR NO CLOUDS BELOW 12,000 FEET WITH NO
SIGNIFICANT WEATHER AND/OR OBSTRUCTIONS TO VISIBILITY.

NYZ071-072-176-178-NJZ106-104-031500-
NEW YORK CITY METRO AREA


CITY           SKY/WX    TMP DP  RH WIND       PRES   REMARKS
CENTRAL PARK   LGT RAIN  52  49  89 E8        29.88F FOG
LAGUARDIA APRT LGT RAIN  54  50  86 NE18      29.85F
KENNEDY INTL   LGT RAIN  54  51  90 NE9       29.85F FOG
NEWARK/LIBERTY LGT RAIN  54  53  97 NE10      29.85S FOG
BRNX BOT. GARD   N/A     52  50  93 E9        29.87R
TETERBORO      LGT RAIN  54  48  82 NE3       29.85S FOG
$$

NYZ177-179-078>081-031500-
LONG ISLAND NEW YORK

CITY           SKY/WX    TMP DP  RH WIND       PRES   REMARKS
FARMINGDALE    LGT RAIN  53  51  93 E9        29.85F
ISLIP          NOT AVBL
SHIRLEY        LGT RAIN  53  51  93 VRB5      29.87F
RIVERHEAD        N/A     52  52 100 S1        29.87F
WESTHAMPTON    LGT RAIN  48  48 100 E9G17     29.88F
EAST HAMPTON   DRIZZLE   48  47  96 E7        29.88F
MONTAUK POINT    N/A     49  47  93 NE7       29.89F
$$

NYZ052-065-067-031500-
HUDSON VALLEY

CITY           SKY/WX    TMP DP  RH WIND       PRES   REMARKS
WHITE PLAINS   LGT RAIN  51  49  92 E7        29.85F FOG
NEWBURGH       LGT RAIN  50  50 100 E9        29.88F FOG
MONTGOMERY     LGT RAIN  50  48  93 NE9       29.87F
POUGHKEEPSIE   CLOUDY    53  48  83 N8        29.87F
ALBANY         CLOUDY    49  42  77 N9        29.92F
$$

NJZ001-105-106-008-010-013-015-019>022-104-031500-
NEW JERSEY

CITY           SKY/WX    TMP DP  RH WIND       PRES   REMARKS
NEWARK/LIBERTY LGT RAIN  54  53  97 NE10      29.85S FOG
TETERBORO      LGT RAIN  54  48  82 NE3       29.85S FOG
CALDWELL       LGT RAIN  52  50  93 E7        29.86F FOG
MORRISTOWN     LGT RAIN  52  52 100 E7        29.86F
SOMERVILLE     CLOUDY    54  51  90 NE5       29.83S FOG
SUSSEX         CLOUDY    50  46  86 NE8       29.87F
ANDOVER          N/A     51  49  92 VRB7      29.85F
TRENTON        CLOUDY    54  51  90 E12       29.82S
MILLVILLE      CLOUDY    56  55  97 NE8       29.79R
ATLANTIC CITY  LGT RAIN  54  53  97 NE10      29.80S FOG
WRIGHTSTOWN    NOT AVBL
TOMS RIVER     CLOUDY    54  48  82 E10G16    29.82S
BELMAR         LGT RAIN  53  52  96 NE13      29.83F
$$

PAZ047>061-062-071-031500-
EASTERN PENNSYLVANIA

CITY           SKY/WX    TMP DP  RH WIND       PRES   REMARKS
PHILADELPHIA   CLOUDY    57  52  83 NE10      29.82R
ALLENTOWN      LGT RAIN  53  51  93 NE9       29.83F FOG
SCRANTON       LGT RAIN  48  46  93 N5        29.86S FOG
$$

CTZ002-004>006-009-010-012-RIZ004-006-007-MAZ004-011-015-031500-
SOUTHERN NEW ENGLAND
 IN CT

CITY           SKY/WX    TMP DP  RH WIND       PRES   REMARKS
BRADLEY INTL   LGT RAIN  50  48  93 N7        29.90S FOG
HARTFORD       CLOUDY    53  49  86 NE5       29.90F FOG
DANBURY        LGT RAIN  50  48  93 NE5       29.88F FOG
WTRBRY/OXFORD  LGT RAIN  50  46  87 CALM      29.89F FOG
BRIDGEPORT     LGT RAIN  51  49  92 E13       29.88F
MERIDEN        LGT RAIN  52  49  89 N5        29.89F FOG
NEW HAVEN      LGT RAIN  51  49  92 E7        29.88F FOG
CHESTER        NOT AVBL
GROTON         LGT RAIN  50  50 100 E8        29.89F FOG
WILLIMANTIC    LGT RAIN  52  47  83 CALM      29.91S

 IN RI

CITY           SKY/WX    TMP DP  RH WIND       PRES   REMARKS
PROVIDENCE     LGT RAIN  49  46  90 NE5       29.92S FOG
BLOCK ISLAND   LGT RAIN  47  47 100 NE10      29.90F FOG
WESTERLY       LGT RAIN  50  46  86 NE6       29.90F FOG

 IN MA

CITY           SKY/WX    TMP DP  RH WIND       PRES   REMARKS
BOSTON         LGT RAIN  47  44  90 NE3       29.93F
WORCESTER      LGT RAIN  45  44  97 E5        29.90S
WESTFIELD      LGT RAIN  49  46  90 N7        29.91F
PROVINCETOWN   LGT RAIN  45  44  97 NE8       29.93S
NANTUCKET      RAIN      47  45  93 E7        29.90S FOG
$$

ANZ330-335-338-340-345-350-353-355-031500-
COASTAL MARINE OBSERVATIONS


STATION/POSITION TIME  SKY/WX   TEMP    WIND        PRES    VSBY  WAVE
                                AIR SEA DIR/SP/G                  HT/PER
                 (UTC)          (F)     (DEG/KT/KT) (MB)    (MI)  (FT/S)
NY HARB ENTRANCE 1250            52 51   70/ 14/ 17 1010.1          3/ 9
20S FIRE ISLAND  1250            49 49   50/ 14/ 16 1010.6          3/ 9
GREAT SOUTH BAY  1300            53 56   80/ 14/ 16   N/A
23 SSW MONTAUK P 1250            47 47   70/ 12/ 14 1011.8          3/ 9
15 E BARNEGAT LI 1322               51                N/A           4/ 7
HUDSON CANYON    1250            52 49              1009.1          3/10
KINGS POINT      1300            51 53              1011.0
EXECUTION ROCKS  NOT AVBL
CENTRAL LI SOUND 1230            49      90/ 12/ 14   N/A           0
EASTERN LI SOUND 1300            49 48   80/ 10/ 14   N/A
ROBBINS REEF     1300            53      50/ 13/ 15 1010.0
$$


>>>>>>>>>>>>>>>>>>>>>>>>>>>> KEY <<<<<<<<<<<<<<<<<<<<<<<<<<<
>                                                          <
>     SKY/WX - SKY CONDITION/PRESENT WEATHER               <
>     TMP    - TEMPERATURE IN FAHRENHEIT                   <
>     DP     - DEWPOINT IN FAHRENHEIT                      <
>     RH     - RELATIVE HUMIDITY IN PERCENT                <
>     WIND   - DIRECTION AND SPEED IN MPH                  <
>     PRES   - MEAN SEA LEVEL PRESSURE IN INCHES OF HG     <
>     WCI    - WIND CHILL INDEX                            <
>     VSB    - VISIBILITY IN MILES                         <
>     HX     - HEAT INDEX                                  <
>     TC     - TEMPERATURE IN CELSIUS                      <
>     VRB    - VARIABLE WIND DIRECTION                     <
>                                                          <
>>>>>>>>>>>>>>>>>>>>>>>>>>>> KEY <<<<<<<<<<<<<<<<<<<<<<<<<<<






USA.gov is the U.S. government's official web portal to all federal, state and local government web resources and services.